Find GPS IIA-12

NORAD ID: 22700 Int'l Des: 1993-042 Owner: AFSMC Country: US Constellation: GPS operational
MEOCIRCULAR

实时位置

正在加载3D地球...

关于 GPS IIA-12

正在加载描述...

即将过境

Passes for default location (London). Set your location on the main map for personalized predictions.

高度历史

Loading altitude history...

两行轨道根数

1 22700U 93042A 26138.37966852 .00000073 00000-0 00000+0 0 9994
2 22700 54.7102 170.0015 0011780 30.8214 151.9348 1.89431922236563
Epoch: May 18, 2026 • Age: 40 hours

当前状态

高度 21257.1 km
速度 3.80 km/s
星下点 -43.99°S, 139.17°E
发射日期 Jun 26, 1993
运行时间 32.8 years
类型 navigation

技术详情

分类 Payload
质量 860.00 kg
干质量 860.00 kg
总质量 1881.00 kg
长度 2.40 m
直径 1.80 m
跨度 5.30 m
形状 Box + 2 Pan
制造商 RWISB
平台类型 GPS
阶段状态 In Orbit
所有者/国家 AFSMC/US

Most Searched